Regional Weather Roundup
Issued by NWS Burlington, VT

Home | Current Version | Previous Version | Text Only | Print | Product List | Glossary On
Versions: 1 2 3 4 5 6 7 8 9 10 11 12 13 14 15 16 17 18 19 20 21 22 23 24 25 26 27 28 29 30 31 32 33 34 35 36 37 38 39 40 41 42 43 44 45 46 47 48 49 50
000
ASUS41 KBTV 010230
RWRBTV
VERMONT REGIONAL WEATHER ROUNDUP
NATIONAL WEATHER SERVICE BURLINGTON VT
1000 PM EDT TUE JUN 30 2015

NOTE: "FAIR" INDICATES FEW OR NO CLOUDS BELOW 12,000 FEET WITH NO
SIGNIFICANT WEATHER AND/OR OBSTRUCTIONS TO VISIBILITY.

* THESE REPORTS ARE NOT UNDER NWS QUALITY CONTROL AND/OR DO NOT
  REPORT WEATHER SUCH AS PRECIPITATION AND FOG.

VTZ001>019-010300-
_____VERMONT_____


CITY           SKY/WX    TMP DP  RH WIND       PRES   REMARKS
BURLINGTON     LGT RAIN  64  61  90 S3        29.88S
MONTPELIER     LGT RAIN  61  59  93 CALM      29.99R
MORRISVILLE    LGT RAIN  62  59  90 CALM      29.95R
ST. JOHNSBURY*   N/A     64  60  87 MISG      29.94R
LYNDONVILLE*   CLOUDY    61  59  93 CALM      29.98
MIDDLEBURY*    CLOUDY    64  64 100 CALM      29.89
RUTLAND*       CLOUDY    64  57  77 SE3       29.92S
SPRINGFIELD    FAIR      62  61  96 CALM      29.94S
HIGHGATE*      FAIR      60  60  97 CALM      29.87
NEWPORT*       CLOUDY    60  58  92 CALM      29.95
BENNINGTON     FAIR      70  56  61 SE13G23   29.90S
SUTTON*          N/A     59 N/A N/A MISG        N/A
GALLUP MILLS*    N/A     59 N/A N/A MISG        N/A
MT. MANSFIELD*   N/A     54 N/A N/A SE17        N/A

_____LAKE CHAMPLAIN_____


CITY           SKY/WX    TMP DP  RH WIND       PRES   REMARKS
BURTON ISLAND*   N/A     64  63  94 S7          N/A
COLCHESTER RF*   N/A     64  61  88 S12         N/A
DIAMOND ISL*     N/A    N/A N/A N/A E2          N/A

$$

NYZ007-026>031-035-052-083-010300-
_____NORTHERN NEW YORK_____


CITY           SKY/WX    TMP DP  RH WIND       PRES   REMARKS
PLATTSBURGH    FAIR      60  59  96 SE6       29.87S
SARANAC LAKE   MOCLDY    61  58  90 CALM      29.87S
MASSENA        CLOUDY    63  58  83 E6        29.82S
OGDENSBURG*    CLOUDY    63  61  94 CALM      29.80S
POTSDAM*       MOCLDY    63  63 100 CALM      29.81S
STARK FALLS*     N/A     64 N/A N/A SE14        N/A
WATERTOWN      FAIR      63  62  97 CALM      29.78R
FT DRUM        FAIR      65  62  90 SE14      29.79R
ALBANY         MOCLDY    65  63  93 NE3       29.87S
GLENS FALLS    FAIR      62  60  93 CALM      29.89R

$$
NHZ002-005-011-010300-
_____NEW HAMPSHIRE_____


CITY           SKY/WX    TMP DP  RH WIND       PRES   REMARKS
LEBANON        MOCLDY    64  61  90 CALM      29.93S
KEENE          MOCLDY    66  61  82 CALM      29.95R
MT WASHINGTON  SHOWER    46  46 100 S25G36      N/A  VSB 1/16
PLYMOUTH       CLOUDY    65  65 100 CALM      29.96S
WHITEFIELD     LGT RAIN  64  62  93 NE3       29.97R FOG

$$

_____REGIONAL QUEBEC LOCATIONS_____


CITY           SKY/WX    TMP DP  RH WIND       PRES   REMARKS
MONTREAL       CLOUDY    64  59  82 E9        29.86F
QUEBEC CITY    MOCLDY    70  63  78 CALM      29.89S
SHERBROOKE     RAIN      63  59  88 CALM      29.94F

_____REGIONAL ONTARIO LOCATIONS_____


CITY           SKY/WX    TMP DP  RH WIND       PRES   REMARKS
OTTAWA         LGT RAIN  64  59  82 E10       29.82S

______KEY______
VSB  - VISIBILITY IN MILES
WCI  - WIND CHILL INDEX
HX   - HEAT INDEX
$$
NNNN


USA.gov is the U.S. government's official web portal to all federal, state and local government web resources and services.